NOAA 16 DEB, 41249

Orbit data source: Space-Track

NOAA 16 DEB, 41249 is space debris in SSO originally from a launch on Thu, 21 Sep 2000 UTC launched from the Air Force Western Test Range (AFWTR). Debris objects in space refer to the collection of defunct objects orbiting the Earth. Examples of debris include non-operational satellites, rocket bodies, and fragments generated from explosions, collisions, or faulty payload assembly.

Loading next visibility...
NOAA 16 DEB details
Identifier
41249, 2000-055EZ
Orbit
SSO
Last TLE update5 days ago
Origin
Flag of USNOAA (US)
ManufacturerUnknown
MissionSpacecraft
Bus & MotorUnknown
MassUnknown
Launch date (UTC)
2000-09-21 (24 years ago)
Launch vehicleUnknown
Launch site
Air Force Western Test Range (AFWTR)
Object type
Payload
Rocket body
Debris
Shape & HBRUnknown
Radar Cross SectionSmall (<0.1 m²)

Expand to show TLE details & history

TLE from 5 days ago
0 NOAA 16 DEB
1 41249U 00055EZ  24342.02783834  .00017823  00000-0  49329-2 0  9990
2 41249  98.9821 163.5914 0038432 274.3028  85.3771 14.46256137464839
Epoch: 2024-12-07T00:40Z
Definitive object data (Epoch: 2024-12-07T00:40:05.232Z)
Latitude-0.00003°
Longitude77.28378°
Altitude738.744 km
Speed7.487 km/s
True Right ascension10h 54m 21s
True Declination0° 00' 00"
Sunlit
Object was in daylight at TLE epoch
Visualization TLE readout
Latitude-14.25516°
Longitude84.77171°
Altitude741.239 km
Speed7.484 km/s
Apparent Right ascension10h 21m 59s
Apparent Declination-27° 28' 13"
Sunlit
Object is in daylight
Visualization observer readout
Local Sidereal Time20:53:02
Azimuth297.284° NW
Elevation-67.804°
Doppler factor1
Orbital elements
Apogee altitude762.377 km
Perigee altitude707.702 km
Semi-major axis7,113.177 km
Eccentricity0.0038432
Inclination98.9821°
RAAN163.5914°
Arg. of periapsis274.3028°
True anomaly85.81623°
Mean anomaly85.3771°
Eccentric anomaly85.59665°
Mean motion3.61783 °/min
BSTAR0.0049329
Orbital period99.51 mins
Loading maneuver chart data...
Loading historical data...
Loading historical data...
Loading historical data...
Loading historical data...
Loading historical data...
Loading historical data...
Loading historical data...

NOAA 16 DEB Visibility forecast

Observer location: undefined°, undefined

Span
Click to sort rows by Start time (UTC) header in descending order
Start Az.
Max El. time (UTC)
Max El. Az.
Max El.
End time (UTC)
End Az.
9 mins2024-12-12 00:47:01.504Z26.918° NE2024-12-12 00:52:01.504Z110.501° ESE35.33°2024-12-12 00:56:01.504Z171.227° S
5 mins2024-12-12 02:28:01.504Z322.895° NNW2024-12-12 02:30:01.504Z291.355° WNW19.442°2024-12-12 02:33:01.504Z251.86° W
8 mins2024-12-12 11:58:01.504Z145.418° SSE2024-12-12 12:01:01.504Z92.987° ESE39.907°2024-12-12 12:06:01.504Z354.916° N
|